Home > Weather > Holguín > Past weeks

Flag for Cuba Past Weather in Holguín, Cuba — Yesterday and Last 2 Weeks

Now
79 °F

Broken clouds.


Feels Like: 81 °F
Forecast: N/A
Wind: 14 mph from East

Location: Holguin Civ / Mil

Current Time: May 24, 2016 at 5:47:24 PM

Latest Report: May 24, 2016 at 4:50 PM


Visibility: 6 mi

Pressure: 30.04 "Hg

Humidity: 74%

Dew Point: 70 °F

Location of HolguínLocation

Past Weather in Holguín — Graph

°F

Holguín Temperature Yesterday

Maximum temperature yesterday: 93 °F (at 2:50 PM)
Minimum temperature yesterday: 70 °F (at 2:50 AM)
Average temperature yesterday: 80 °F

High & Low Weather Summary for the Past Weeks

 TemperatureHumidityPressure
High95 °F (May 18, 3:50 PM)94% (May 13, 4:51 AM)30.09 "Hg (May 13, 4:51 AM)
Low70 °F (May 13, 4:51 AM)32% (May 23, 5:50 PM)29.89 "Hg (May 22, 6:50 PM)
Average81 °F72%30.00 "Hg
* Reported May 9 4:55 PM — May 24 4:50 PM, Holguín, Weather by CustomWeather, © 2016

Note: Actual official high and low records may vary slightly from our data, if they occured in-between our weather recording intervals... More about our weather records

Advertising

Holguín Weather History for the Previous 24 Hours

Scroll right to see more
 ConditionsComfort  
Time TempWeatherWind HumidityBarometerVisibility
4:50 PM
Tue, May 24
79 °FBroken clouds.14 mph74%30.04 "Hg6 mi
3:50 PM79 °FBroken clouds.10 mph79%30.04 "Hg6 mi
2:50 PM81 °FBroken clouds.9 mph70%30.04 "Hg6 mi
1:50 PM84 °FBroken clouds.10 mph66%30.07 "Hg6 mi
12:50 PM82 °FPartly sunny.9 mph70%30.07 "Hg5 mi
11:51 AM81 °FBroken clouds.13 mph74%30.07 "Hg6 mi
10:50 AM77 °FLight rain. Broken clouds.6 mph83%N/A5 mi
9:50 AM75 °FLight rain. Broken clouds.2 mph89%30.07 "Hg5 mi
8:50 AM75 °FBroken clouds.2 mph89%30.04 "Hg5 mi
7:50 AM75 °FLight rain. Broken clouds.2 mph89%30.04 "Hg4 mi
6:50 AM75 °FThundershowers. Partly cloudy.5 mph83%30.01 "Hg5 mi
5:50 AM73 °FThundershowers. Passing clouds.6 mph89%30.01 "Hg4 mi
4:53 AM75 °FThundershowers. Partly cloudy.8 mph83%N/A5 mi
3:50 AM75 °FFog.6 mph83%29.98 "Hg5 mi
2:50 AM75 °FPassing clouds.6 mph83%29.98 "Hg6 mi
1:50 AM75 °FPassing clouds.6 mph83%29.98 "Hg6 mi
12:51 AM77 °FPassing clouds.2 mph74%30.01 "Hg6 mi
11:50 PM
Mon, May 23
77 °FPassing clouds.7 mph74%30.01 "Hg6 mi
10:50 PM77 °FPassing clouds.8 mph69%30.04 "Hg6 mi
9:50 PM77 °FPartly cloudy.5 mph69%29.98 "Hg6 mi
8:50 PM79 °FPartly cloudy.8 mph65%29.98 "Hg6 mi
7:50 PM81 °FBroken clouds.10 mph66%29.95 "Hg6 mi
6:51 PM82 °FScattered clouds.12 mph58%29.92 "HgN/A
5:50 PM93 °FScattered clouds.3 mph32%29.89 "HgN/A
Weather by CustomWeather, © 2016

See weather overviewHow to use our weather pages